Location: Tucson
(32.2217°N, 110.9265°W)
Time: 07:01:18
(UTC-07:00)

Explorer 7 - Visible Passes

Search period start: 25 October 2021 00:00
Search period end: 04 November 2021 00:00
Orbit: 484 x 676 km, 50.3° (Epoch: 24 October)

Date Brightness Start Highest point End Pass type
(mag) Time Alt. Az. Time Alt. Az. Time Alt. Az.
25 Oct 8.5 04:43:57 27° S 04:43:57 27° S 04:46:38 10° SSE visible
25 Oct 8.4 18:36:18 10° SSE 18:38:37 16° SE 18:38:56 15° ESE visible
25 Oct 9.7 20:14:55 10° WSW 20:15:16 12° WSW 20:15:16 12° WSW visible
26 Oct 9.4 04:48:57 14° SSW 04:48:57 14° SSW 04:49:52 10° S visible
26 Oct 7.7 18:39:18 10° S 18:42:35 28° SE 18:43:41 24° E visible
26 Oct 9.8 20:19:30 10° W 20:20:00 13° W 20:20:00 13° W visible
27 Oct 6.8 18:42:55 10° SSW 18:46:37 54° SE 18:48:18 29° ENE visible
27 Oct 10.0 20:24:25 10° WNW 20:24:37 11° WNW 20:24:37 11° WNW visible
28 Oct 6.7 18:46:57 10° SW 18:50:44 79° NW 18:52:49 26° NE visible
29 Oct 7.6 18:51:19 10° WSW 18:54:56 43° NW 18:57:13 21° NNE visible
30 Oct 8.4 18:55:59 10° W 18:59:14 26° NNW 19:01:31 16° NNE visible
31 Oct 9.0 19:00:57 10° WNW 19:03:36 17° NNW 19:05:43 12° N visible
01 Nov 9.3 19:06:24 10° NW 19:08:03 12° NNW 19:09:43 10° N visible
